Buffalo, SD

1:35 AM MDT on August 22, 2017 (GMT -0600)
Buffalo

Weather History for K2WX - March, 2014

Change the Weather History Date:

Sunday, March 16, 2014

  Actual Average Record
Temperature  
Mean Temperature 44 °F 32 °F  
Max Temperature 62 °F 43 °F 80 °F (2012)
Min Temperature 26 °F 22 °F 15 °F (2006)
Degree Days  
Heating Degree Days 21 32  
Month to date heating degree days 596 562  
Since 1 July heating degree days 6653 6359  
Cooling Degree Days 0 0  
Month to date cooling degree days 0 0  
Year to date cooling degree days 0 0  
Moisture  
Dew Point 27 °F    
Average Humidity 59    
Maximum Humidity 92    
Minimum Humidity 26    
Precipitation  
Precipitation 0.00 in 0.02 in 0.06 in (2011)
Month to date precipitation 0.50 0.37  
Year to date precipitation 1.08 0.94  
Sea Level Pressure  
Sea Level Pressure 29.98 in    
Wind  
Wind Speed 15 mph (SW)    
Max Wind Speed 28 mph    
Max Gust Speed 32 mph    
T = Trace of Precipitation, MM = Missing Value Source: NWS Daily Summary

Daily Weather History Graph

Daily Weather History Graph

Search for Another Location

Airport or City:

Trip Planner

Search our weather history database for the weather conditions in past years. The results will help you decide how hot, cold, wet, or windy it might be!

Date:

Astronomy

Mar. 16, 2014 Rise Set
Actual Time 7:04 AM MDT 7:01 PM MDT
Civil Twilight 6:35 AM MDT 7:30 PM MDT
Nautical Twilight 6:00 AM MDT 8:05 PM MDT
Astronomical Twilight 5:25 AM MDT 8:40 PM MDT
Moon 7:23 PM MDT (3/16) 6:48 AM MDT (3/16)
Length of Visible Light 12h 55m
Length of Day
11h 56m
Full, 100% of the Moon is Illuminated
Mar 16
Full
Mar 23
Last Quarter
Mar 30
New
Apr 7
First Quarter
Apr 15
Full

Hourly Weather History & Observations

Time (MDT) Temp. Windchill Dew Point Humidity Pressure Visibility Wind Dir Wind Speed Gust Speed Precip Events Conditions
12:56 AM 26.1 °F 15.0 °F 23.0 °F 88% 30.32 in - South 12.7 mph - N/A   Unknown
1:56 AM 26.1 °F 15.0 °F 24.1 °F 92% 30.30 in - South 12.7 mph - N/A   Unknown
2:56 AM 27.0 °F 16.7 °F 25.0 °F 92% 30.28 in - South 11.5 mph - N/A   Unknown
3:56 AM 28.0 °F 17.5 °F 25.0 °F 88% 30.23 in - South 12.7 mph - N/A   Unknown
4:56 AM 27.0 °F 15.6 °F 25.0 °F 92% 30.25 in - South 13.8 mph - N/A   Unknown
5:56 AM 27.0 °F 15.2 °F 25.0 °F 92% 30.22 in - South 15.0 mph - N/A   Unknown
6:56 AM 27.0 °F 14.7 °F 25.0 °F 92% 30.20 in - South 16.1 mph - N/A   Unknown
7:56 AM 27.0 °F 16.1 °F 25.0 °F 92% 30.17 in - South 12.7 mph - N/A   Unknown
8:56 AM 28.0 °F 14.6 °F 26.1 °F 92% 30.13 in - South 20.7 mph - N/A   Unknown
9:56 AM 30.9 °F 18.7 °F 27.0 °F 85% 30.09 in - South 19.6 mph - N/A   Unknown
10:56 AM 37.0 °F 27.7 °F 30.9 °F 79% 30.04 in - South 16.1 mph - N/A   Unknown
11:56 AM 45.0 °F 37.9 °F 32.0 °F 60% 30.01 in - SSW 16.1 mph - N/A   Unknown
12:56 PM 50.0 °F - 33.1 °F 52% 29.94 in - SW 16.1 mph 23.0 mph N/A   Unknown
1:56 PM 57.9 °F - 32.0 °F 37% 29.88 in - WSW 20.7 mph - N/A   Unknown
2:56 PM 60.1 °F - 28.0 °F 30% 29.84 in - West 21.9 mph 28.8 mph N/A   Unknown
3:56 PM 59.0 °F - 27.0 °F 29% 29.81 in - West 23.0 mph 28.8 mph N/A   Unknown
4:56 PM 59.0 °F - 25.0 °F 27% 29.79 in - West 21.9 mph - N/A   Unknown
5:56 PM 55.9 °F - 28.9 °F 36% 29.77 in - West 12.7 mph - N/A   Unknown
6:56 PM 53.1 °F - 28.0 °F 38% 29.75 in - West 13.8 mph - N/A   Unknown
7:56 PM 48.0 °F - 28.0 °F 46% 29.75 in - West 11.5 mph - N/A   Unknown
8:56 PM 45.0 °F 40.6 °F 27.0 °F 49% 29.73 in - WSW 8.1 mph - N/A   Unknown
9:56 PM 43.0 °F 37.2 °F 28.0 °F 56% 29.70 in - WSW 10.4 mph - N/A   Unknown
10:56 PM 41.0 °F 34.7 °F 27.0 °F 57% 29.67 in - WSW 10.4 mph - N/A   Unknown
11:56 PM 41.0 °F 35.8 °F 27.0 °F 57% 29.63 in - WSW 8.1 mph - N/A   Unknown